Lapse_Rate
5.3 4.7 3.5 2.2 2.6 2.0 1.6 1.7 1.1 1.5 0.6 1.0 1.2 0.9 1.1 1.3 1.2 1.5 1.8 2.1 2.0 1.9 1.8 1.8 1.9 1.4 1.6 1.6 2.3 2.1 2.8 3.0
4.9 4.8 4.6 2.7 3.0 2.7 2.3 2.1 1.5 2.1 1.4 1.2 1.6 1.2 1.1 1.4 1.8 2.1 2.2 2.6 2.5 2.4 2.4 1.9 2.2 2.5 2.5 2.0 2.2 2.7 2.9 3.0
5.6 5.1 4.7 4.7 2.9 2.1 2.1 2.3 1.8 1.7 2.3 2.0 2.3 2.3 1.9 2.1 2.2 2.2 2.6 2.6 2.7 2.9 3.1 2.5 2.5 2.6 2.2 2.0 2.9 2.7 3.1 2.5
4.2 5.7 4.5 4.3 4.4 3.0 2.2 1.6 2.0 2.0 2.3 3.4 2.5 2.2 2.0 2.1 2.5 2.4 2.7 2.9 3.1 3.2 3.5 3.2 2.4 3.2 2.7 2.0 2.5 3.2 3.0 2.1
2.8 3.9 4.0 4.2 4.3 3.4 2.6 1.9 1.5 2.4 2.9 2.7 3.1 2.0 2.2 2.1 2.5 2.2 2.9 3.2 3.1 3.3 3.3 3.5 2.5 3.0 2.4 2.3 2.2 2.5 2.7 2.7
2.1 1.4 2.8 3.4 3.8 4.3 3.4 2.7 1.5 2.1 2.7 2.2 2.1 2.7 2.9 2.0 2.3 1.8 2.3 2.8 3.1 3.1 3.5 2.9 3.2 2.3 2.5 2.1 1.7 2.1 2.2 2.4
2.6 2.5 1.4 3.0 3.2 3.8 3.2 4.1 2.9 1.9 2.6 2.7 1.9 1.7 2.7 2.6 1.9 1.4 1.6 1.4 2.5 2.7 2.9 3.3 3.7 3.1 2.6 2.3 2.5 2.4 2.6 2.2
2.5 2.5 2.4 2.3 2.9 3.6 3.1 3.5 4.3 2.2 1.5 2.6 2.1 2.0 2.4 1.6 0.4 -0.1 1.1 1.2 1.8 2.0 2.3 2.8 3.3 3.3 3.1 3.2 2.7 2.7 2.6 2.7
4.8 3.4 2.3 2.0 2.3 3.5 3.2 2.0 4.1 3.3 1.6 1.5 2.1 2.3 2.6 2.2 1.2 0.7 0.4 0.2 -0.0 1.3 0.8 2.0 2.7 2.7 2.9 2.7 3.1 2.9 2.4 2.7
3.8 2.6 2.1 1.0 2.2 2.6 2.9 2.6 2.6 2.2 1.8 1.1 1.8 2.1 3.3 2.4 1.6 0.9 0.5 0.3 0.5 0.9 0.5 1.4 0.8 1.5 2.1 2.1 2.9 2.6 2.0 2.1
1.6 1.9 2.3 0.9 0.4 1.8 2.6 2.0 1.2 1.8 1.5 2.5 1.6 1.4 1.5 1.7 2.2 0.6 0.2 -0.5 -0.1 0.0 0.7 1.2 1.3 1.0 1.0 1.7 2.0 0.9 1.5 -0.7
1.9 1.4 1.4 1.1 1.1 0.9 1.3 2.3 2.0 2.0 2.0 2.3 2.3 2.4 1.9 2.9 2.0 0.1 0.1 -0.2 -1.0 -0.9 0.4 1.0 1.5 1.2 1.0 1.4 0.9 -0.5 0.7 -0.9
3.1 2.3 1.5 1.1 0.3 0.5 1.2 2.1 2.7 2.9 1.7 1.5 1.3 3.1 3.0 2.8 1.1 -0.3 0.0 -0.7 -1.0 -0.7 0.2 1.1 1.3 1.6 1.4 1.5 0.0 0.2 0.3 -0.3
0.4 -0.3 1.1 1.7 0.7 -0.6 0.7 1.1 2.5 2.5 2.9 2.2 3.2 4.0 4.3 2.8 0.7 0.2 -0.5 -0.6 -0.4 -0.5 0.2 1.2 0.9 1.2 1.2 1.3 0.5 0.1 0.2 -0.5
4.3 1.3 1.0 1.2 -0.6 -0.8 0.3 0.9 1.2 1.5 2.7 2.8 2.9 3.1 2.7 2.0 1.1 1.7 -0.1 -0.4 0.2 0.3 0.4 1.2 2.0 1.8 1.1 1.0 0.0 -0.3 -0.9 -0.6
5.9 6.0 5.1 4.9 1.8 -1.4 -2.2 -1.0 0.8 0.6 2.0 2.9 2.2 1.9 2.0 2.7 2.7 2.9 1.1 1.1 0.8 1.3 1.2 1.5 1.9 -0.2 -1.3 -2.0 -1.2 -1.4 -0.7 -1.2
6.0 5.9 5.3 5.3 5.7 4.1 1.1 -1.2 -1.2 -2.0 2.2 3.1 2.7 3.0 3.3 3.3 2.8 2.5 2.2 1.5 1.7 1.9 1.8 1.8 -0.9 -1.2 -5.0 -5.1 -2.9 -2.1 -1.6 -1.4
5.7 5.5 5.3 5.2 5.4 4.4 3.1 1.4 0.5 1.6 2.2 2.3 3.8 4.1 3.4 3.5 3.2 2.8 2.6 2.2 1.9 2.0 1.4 -0.4 -1.1 -1.3 -6.1 -6.4 -5.5 -2.3 -2.3 -1.4
5.5 6.1 6.0 4.3 5.5 5.2 2.8 2.3 1.5 2.0 2.7 2.1 2.5 3.7 4.1 3.9 3.2 3.0 2.9 2.1 1.3 1.6 0.9 -0.2 -1.1 -2.8 -6.0 -5.4 -5.5 -2.6 -2.0 -3.2
Wind_Speed
20 19 18 19 19 19 19 17 17 16 11 9 8 8 8 12 11 14 17 18 17 13 9 8 10 4 4 3 3 3 3 4
22 19 19 18 18 18 18 18 17 13 11 11 10 11 11 10 9 16 17 18 17 14 7 7 9 7 7 7 4 5 3 3
20 20 19 19 21 22 20 20 19 17 14 13 9 11 9 9 8 10 18 18 18 16 12 9 9 6 6 7 5 3 2 4
18 19 20 21 21 22 21 23 22 21 19 11 4 5 3 6 9 9 12 17 19 18 15 10 8 9 8 7 7 7 4 1
17 21 21 22 22 22 23 23 23 20 19 16 20 16 13 13 11 10 12 17 14 18 15 13 11 9 9 10 8 5 5 5
15 17 23 22 24 21 22 22 22 22 22 21 18 17 13 9 10 14 14 13 13 14 15 13 12 8 9 10 8 6 4 4
13 13 18 21 22 22 20 23 23 22 23 23 23 23 17 12 13 12 12 11 11 14 14 14 13 11 10 9 10 10 9 5
12 13 13 17 22 22 19 23 24 24 25 24 24 23 20 20 17 14 14 12 12 17 16 15 13 13 11 10 10 11 10 9
18 17 13 17 21 22 22 23 23 24 25 26 24 23 15 14 16 12 13 13 15 17 17 16 16 13 12 11 9 9 9 9
15 14 13 12 18 23 24 22 25 25 27 24 23 21 20 18 19 16 13 14 12 15 16 17 16 14 15 14 11 11 10 8
9 10 13 11 16 19 22 24 26 27 26 23 21 23 24 21 16 18 18 16 14 14 15 16 14 15 15 14 11 7 10 4
7 8 8 8 9 13 18 21 24 22 22 22 23 22 21 18 17 17 18 15 14 16 17 16 15 15 15 14 12 11 11 9
6 7 8 8 9 12 17 18 20 20 21 24 24 22 19 19 18 19 17 18 16 17 15 16 15 14 14 16 14 13 14 12
9 8 8 8 9 11 13 15 18 19 20 20 18 19 18 21 22 19 17 16 16 15 15 16 17 17 15 14 14 14 12 13
13 14 14 11 9 7 12 15 19 20 19 19 20 20 20 21 21 18 17 17 15 15 16 14 14 13 12 11 11 13 14 13
14 13 13 14 10 7 7 11 16 18 20 20 21 20 19 17 16 17 15 14 14 15 14 13 13 13 11 15 13 14 15 14
12 14 17 18 16 8 2 2 5 10 16 18 18 17 15 16 15 15 14 14 14 14 15 14 14 11 16 16 17 14 14 14
11 13 14 17 17 9 5 3 5 6 9 8 13 12 14 14 13 13 14 15 13 14 14 15 16 13 19 21 21 15 14 14
11 12 15 17 17 13 6 3 6 7 6 6 7 10 12 12 13 14 14 12 14 12 14 14 13 11 23 23 22 16 14 16
Wind_Direction
206 200 190 189 187 186 183 186 183 184 172 169 174 177 186 187 189 191 190 195 193 192 192 197 181 174 193 173 184 187 190 205
201 201 196 188 190 185 186 183 180 177 175 177 181 188 188 193 198 192 191 196 194 192 199 196 188 193 196 193 171 178 211 158
202 197 195 194 191 190 186 188 181 183 187 188 190 187 199 190 192 196 198 195 193 195 199 202 195 188 186 180 168 139 188 174
201 199 197 197 196 194 191 187 186 187 186 179 169 152 123 174 194 196 202 197 197 200 202 201 192 193 194 185 183 168 159 182
194 195 200 202 202 197 195 190 188 191 179 180 187 187 188 205 196 193 198 201 200 198 197 201 195 198 194 189 185 170 146 164
197 188 193 206 207 198 197 192 190 188 187 185 189 197 205 188 193 189 194 200 202 199 198 195 197 194 199 191 177 175 172 159
211 191 187 199 210 205 194 194 194 189 191 192 191 199 193 184 186 191 193 192 197 201 198 200 199 200 195 193 191 186 191 170
215 216 182 196 205 205 194 194 195 191 193 195 198 200 192 195 189 189 188 194 197 203 196 198 203 202 198 191 190 194 193 190
222 219 196 193 200 201 196 195 196 194 193 199 202 200 196 198 196 193 197 200 203 201 199 199 202 198 195 192 195 195 192 201
215 217 215 187 200 201 197 195 199 196 196 197 200 199 200 199 198 194 200 205 205 201 195 200 195 192 192 190 199 193 184 192
223 233 223 201 199 200 196 197 198 199 197 198 199 199 201 201 192 196 198 200 195 194 195 196 194 191 186 187 193 174 171 158
229 216 230 220 186 193 204 206 205 200 198 199 203 202 201 197 197 198 201 193 188 188 193 192 193 192 188 185 182 164 165 145
289 254 234 201 207 200 202 206 208 206 201 201 203 202 198 194 200 200 195 196 189 186 188 191 189 190 189 187 179 175 164 156
352 12 326 247 219 200 197 197 207 207 204 203 202 201 196 197 200 198 193 191 191 183 185 189 189 188 187 188 182 172 165 155
14 13 353 315 286 231 195 203 203 206 202 199 198 195 196 199 201 196 191 190 184 182 187 187 186 180 180 183 164 155 149 150
18 6 353 337 325 318 238 215 209 199 198 197 199 196 197 195 194 194 190 186 186 183 174 181 177 172 171 167 164 167 156 151
358 2 359 351 343 320 263 222 203 179 196 195 195 188 188 191 188 186 181 181 178 175 181 175 173 178 168 160 156 163 155 154
6 0 353 348 341 336 358 113 116 142 174 170 185 180 178 177 177 173 176 181 178 183 178 174 181 181 167 159 159 162 163 166
8 354 357 345 339 340 337 9 91 133 149 135 152 171 170 170 172 177 177 176 182 174 178 177 175 176 164 168 171 163 166 168